Location: Gro� Glienicke
(52.4675°N, 13.1079°E)
Time: 08:32:43
(UTC+00:00)

Meteor 2-2 Rocket - Pass Details

Date: 06 July 2020
Orbit: 852 x 929 km, 81.3° (Epoch: 04 August)

Event Time Altitude Azimuth Distance (km) Brightness Sun altitude
Rises 20:39:17 0° 348° (NNW) 3,532 8.9 -7.9°
Reaches altitude 10° 20:41:49 10° 351° (N) 2,575 7.9 -8.1°
Maximum altitude 20:47:38 63° 73° (ENE) 979 4.5 -8.6°
Enters shadow 20:53:05 11° 154° (SSE) 2,432 5.9 -9.0°
